Location: Arrington
(35.8681°N, 86.7092°W)
Time: 02:06:00
(UTC+00:00)

COSMO-SKYMED 1 - Pass Details

Date: 23 November 2019
Orbit: 621 x 623 km, 97.9° (Epoch: 08 December)

Event Time Altitude Azimuth Distance (km) Brightness Sun altitude
Rises 11:49:34 0° 194° (SSW) 2,887 6.1 -8.6°
Reaches altitude 10° 11:52:02 10° 207° (SSW) 1,986 5.1 -8.1°
Maximum altitude 11:55:38 26° 264° (W) 1,244 3.6 -7.4°
Drops below altitude 10° 11:59:16 10° 321° (NW) 1,997 4.6 -6.7°
Sets 12:01:47 0° 334° (NNW) 2,907 5.6 -6.3°
